User: anonymous
Location: Niverville
(49.6028°N, 97.0419°W)
Time: 00:00:51
(UTC-05:00)
Language:

BREEZE-M DEB (TANK) - Orbit

View from above orbital plane
View from above orbital plane
View from above satellite
View from above satellite

Ground track
Ground track

The orbit data is extracted from the following two-line orbital elements,

1 33374U 08044B   14210.44659267  .00001865  00000-0  73365-3 0  6889
2 33374 049.4768 301.4993 5445905 173.7824 348.0835 04.84236253102789
Epoch (UTC): 29 July 2014 10:43:05
Eccentricity: 0.5445905
inclination: 49.4768°
perigee height: 343 km
apogee height: 16417 km
right ascension of ascending node: 301.4993°
argument of perigee: 173.7824°
revolutions per day: 4.84236253
mean anomaly at epoch: 348.0835°
orbit number at epoch: 10278

The dashed part of the orbit path shows where the satellite is in the earth's shadow,  

DLR